KI0MQ Weather Reports


time (UTC)temp
F
wind
direction
speed
knots
gust
knots
rain 1hr
in
rain 24hr
in
rain mn
in
humidity
%
barometer
mb
20260902024508 85 191 0.0 1.7 0.00 0.00 0.00 69 1010.4
20260902024003 85 189 0.0 0.9 0.00 0.00 0.00 70 1010.5
20260902023503 85 190 0.0 1.7 0.00 0.00 0.00 69 1010.4
20260902022003 85 0 0.0 0.0 0.00 0.00 0.00 71 1010.1
20260902021004 85 0 0.0 0.0 0.00 0.00 0.00 70 1010.0
20260902020503 86 0 0.0 0.0 0.00 0.00 0.00 71 1010.0
20260902020007 86 194 0.0 0.9 0.00 0.00 0.00 70 1009.9
20260902015504 86 194 0.0 0.9 0.00 0.00 0.00 70 1009.9
20260902014507 86 0 0.0 0.0 0.00 0.00 0.00 69 1009.8
20260902014004 87 0 0.0 0.0 0.00 0.00 0.00 68 1009.6
20260902013504 87 0 0.0 0.0 0.00 0.00 0.00 69 1009.6
20260902013007 87 194 0.0 0.9 0.00 0.00 0.00 67 1009.6
20260902012504 88 194 0.0 0.9 0.00 0.00 0.00 67 1009.6
20260902012003 88 0 0.0 0.0 0.00 0.00 0.00 66 1009.4
20260902011508 88 0 0.0 0.0 0.00 0.00 0.00 65 1009.4
20260902011004 89 0 0.0 0.0 0.00 0.00 0.00 64 1009.4
20260902010503 89 0 0.0 0.0 0.00 0.00 0.00 64 1009.5
20260902005004 91 192 0.9 1.7 0.00 0.00 0.00 62 1009.4
20260902004508 91 192 0.9 5.2 0.00 0.00 0.00 60 1009.3
20260902004003 91 185 0.9 5.2 0.00 0.00 0.00 60 1009.2
20260902003503 92 183 0.9 4.3 0.00 0.00 0.00 60 1009.3
20260902002503 92 195 0.9 2.6 0.00 0.00 0.00 60 1009.3
20260902002004 92 185 0.9 3.5 0.00 0.00 0.00 60 1009.4
20260902001508 93 174 0.9 3.5 0.00 0.00 0.00 59 1009.4
20260902001004 93 181 0.9 2.6 0.00 0.00 0.00 58 1009.4
20260901235503 94 195 1.7 3.5 0.00 0.00 0.00 56 1009.5
20260901235004 94 191 1.7 4.3 0.00 0.00 0.00 57 1009.5
20260901234508 94 187 0.9 4.3 0.00 0.00 0.00 57 1009.5
20260901233504 94 182 1.7 5.2 0.00 0.00 0.00 57 1009.7
20260901233008 94 187 1.7 5.2 0.00 0.00 0.00 56 1009.7
20260901232504 94 188 1.7 5.2 0.00 0.00 0.00 56 1009.7
20260901232003 94 190 1.7 6.1 0.00 0.00 0.00 57 1009.8
20260901231507 94 189 2.6 7.8 0.00 0.00 0.00 57 1009.8
20260901231003 94 185 2.6 7.8 0.00 0.00 0.00 56 1009.7
20260901230504 95 185 2.6 6.1 0.00 0.00 0.00 56 1009.8
20260901230008 95 184 2.6 6.1 0.00 0.00 0.00 57 1009.8
20260901225504 95 189 1.7 8.7 0.00 0.00 0.00 57 1009.9
20260901225004 95 197 1.7 8.7 0.00 0.00 0.00 58 1010.0
20260901224508 95 199 0.9 4.3 0.00 0.00 0.00 59 1010.0
20260901224003 95 193 1.7 3.5 0.00 0.00 0.00 58 1010.0
20260901223503 94 191 2.6 7.0 0.00 0.00 0.00 58 1010.0
20260901223008 95 190 3.5 10.4 0.00 0.00 0.00 57 1010.0
20260901222503 94 191 3.5 10.4 0.00 0.00 0.00 57 1010.1
20260901222003 95 191 3.5 8.7 0.00 0.00 0.00 58 1010.0
20260901220504 94 195 2.6 7.8 0.00 0.00 0.00 58 1010.2
20260901220008 94 202 2.6 6.1 0.00 0.00 0.00 58 1010.2
20260901215503 94 197 2.6 7.8 0.00 0.00 0.00 58 1010.3
20260901215003 94 193 2.6 7.8 0.00 0.00 0.00 58 1010.2
20260901214508 94 193 2.6 7.8 0.00 0.00 0.00 57 1010.3
20260901214004 94 201 1.7 7.8 0.00 0.00 0.00 59 1010.3
20260901213503 94 197 1.7 7.8 0.00 0.00 0.00 58 1010.3
20260901213008 94 192 2.6 5.2 0.00 0.00 0.00 59 1010.4
20260901212503 94 193 2.6 5.2 0.00 0.00 0.00 59 1010.4
20260901212004 94 191 1.7 5.2 0.00 0.00 0.00 59 1010.4
20260901211508 94 185 2.6 7.0 0.00 0.00 0.00 60 1010.5
20260901211003 94 184 2.6 7.0 0.00 0.00 0.00 60 1010.6
20260901210503 94 191 2.6 6.1 0.00 0.00 0.00 59 1010.6
20260901210008 94 193 2.6 6.1 0.00 0.00 0.00 60 1010.8
20260901205503 94 192 2.6 8.7 0.00 0.00 0.00 59 1010.8
20260901205004 94 189 2.6 8.7 0.00 0.00 0.00 59 1010.8
20260901204508 94 184 2.6 6.1 0.00 0.00 0.00 59 1010.9
20260901204004 94 187 2.6 6.1 0.00 0.00 0.00 59 1010.9
20260901203503 94 185 2.6 5.2 0.00 0.00 0.00 58 1011.0
20260901203008 95 186 1.7 5.2 0.00 0.00 0.00 58 1011.0
20260901202504 95 193 1.7 4.3 0.00 0.00 0.00 59 1011.1
20260901202004 95 187 1.7 4.3 0.00 0.00 0.00 59 1011.2
20260901200503 94 189 2.6 8.7 0.00 0.00 0.00 58 1011.4
20260901195503 94 192 2.6 7.0 0.00 0.00 0.00 58 1011.4
20260901195004 94 193 2.6 7.0 0.00 0.00 0.00 57 1011.5
20260901194508 94 189 2.6 6.1 0.00 0.00 0.00 56 1011.5
20260901194003 94 187 1.7 6.1 0.00 0.00 0.00 58 1011.6
20260901193503 94 188 2.6 5.2 0.00 0.00 0.00 56 1011.6
20260901193007 94 185 2.6 6.1 0.00 0.00 0.00 57 1011.7
20260901192503 94 186 1.7 6.1 0.00 0.00 0.00 56 1011.7
20260901192004 94 184 1.7 7.0 0.00 0.00 0.00 57 1011.7
20260901191507 93 188 1.7 7.0 0.00 0.00 0.00 57 1011.8
20260901190007 93 190 1.7 6.1 0.00 0.00 0.00 58 1011.9
20260901184507 92 190 1.7 5.2 0.00 0.00 0.00 57 1012.0
20260901184003 92 187 2.6 5.2 0.00 0.00 0.00 58 1012.1
20260901183503 92 190 2.6 6.1 0.00 0.00 0.00 60 1012.1
20260901182503 91 184 1.7 5.2 0.00 0.00 0.00 58 1012.1
20260901182004 92 181 1.7 6.1 0.00 0.00 0.00 58 1012.1
20260901181507 92 179 0.9 6.1 0.00 0.00 0.00 58 1012.1
20260901180503 90 187 1.7 7.0 0.00 0.00 0.00 60 1012.2
20260901180007 90 185 1.7 7.0 0.00 0.00 0.00 60 1012.3
20260901175503 90 187 1.7 5.2 0.00 0.00 0.00 57 1012.3
20260901175003 91 193 1.7 5.2 0.00 0.00 0.00 59 1012.4
20260901174507 90 188 1.7 5.2 0.00 0.00 0.00 62 1012.5
20260901174004 90 182 1.7 5.2 0.00 0.00 0.00 59 1012.5
20260901173007 90 193 0.9 2.6 0.00 0.00 0.00 61 1012.5
20260901172004 89 194 0.9 3.5 0.00 0.00 0.00 62 1012.6
20260901171507 89 191 0.9 5.2 0.00 0.00 0.00 60 1012.6
20260901171003 89 184 0.9 5.2 0.00 0.00 0.00 61 1012.7
20260901170008 88 182 0.9 3.5 0.00 0.00 0.00 62 1012.8
20260901165503 88 188 1.7 4.3 0.00 0.00 0.00 60 1012.7
20260901164508 87 194 1.7 5.2 0.00 0.00 0.00 62 1012.8
20260901164004 87 195 1.7 4.3 0.00 0.00 0.00 62 1012.9
20260901163503 87 193 0.9 2.6 0.00 0.00 0.00 61 1012.8
20260901163007 87 194 0.9 2.6 0.00 0.00 0.00 63 1012.8
20260901162503 87 199 0.9 2.6 0.00 0.00 0.00 61 1012.8
20260901160504 86 185 0.9 3.5 0.00 0.00 0.00 62 1012.9
20260901160008 86 189 0.9 3.5 0.00 0.00 0.00 64 1012.8
20260901155504 86 188 0.0 2.6 0.00 0.00 0.00 63 1012.8
20260901154508 85 183 0.9 3.5 0.00 0.00 0.00 65 1012.7
20260901154004 84 181 0.9 3.5 0.00 0.00 0.00 66 1012.7
20260901153503 84 172 0.9 1.7 0.00 0.00 0.00 66 1012.8
20260901153008 84 158 0.9 2.6 0.00 0.00 0.00 67 1012.7
20260901152504 84 156 0.0 2.6 0.00 0.00 0.00 68 1012.6
20260901151507 83 181 0.9 3.5 0.00 0.00 0.00 67 1012.7
20260901151004 83 176 0.0 3.5 0.00 0.00 0.00 68 1012.7
20260901150503 82 179 0.9 3.5 0.00 0.00 0.00 69 1012.7
20260901150008 82 181 0.0 1.7 0.00 0.00 0.00 68 1012.7
20260901145003 82 169 0.9 3.5 0.00 0.00 0.00 70 1012.9
20260901144004 81 181 0.9 2.6 0.00 0.00 0.00 71 1012.9
20260901143503 81 174 0.9 2.6 0.00 0.00 0.00 70 1013.0
20260901143007 81 172 0.9 1.7 0.00 0.00 0.00 71 1013.0
20260901142503 80 178 0.9 1.7 0.00 0.00 0.00 72 1013.0
20260901142003 80 182 0.9 4.3 0.00 0.00 0.00 75 1013.0
20260901141003 79 207 0.0 1.7 0.00 0.00 0.00 78 1013.2
20260901140504 79 199 0.0 1.7 0.00 0.00 0.00 79 1013.2
20260901140007 79 198 0.0 2.6 0.00 0.00 0.00 80 1013.2
20260901135003 78 196 0.9 2.6 0.00 0.00 0.00 81 1013.1
20260901134507 78 186 0.9 2.6 0.00 0.00 0.00 82 1013.1
20260901134004 78 187 0.9 2.6 0.00 0.00 0.00 82 1013.1
20260901132504 77 196 0.0 2.6 0.00 0.00 0.00 83 1013.1
20260901132004 77 195 0.0 1.7 0.00 0.00 0.00 84 1013.1
20260901131508 77 204 0.0 3.5 0.00 0.00 0.00 85 1013.1
20260901131003 77 204 0.0 3.5 0.00 0.00 0.00 85 1013.1
20260901130008 77 206 0.0 1.7 0.00 0.00 0.00 84 1013.1
20260901125503 76 196 0.0 1.7 0.00 0.00 0.00 84 1012.9
20260901125004 76 193 0.0 1.7 0.00 0.00 0.00 85 1013.0
20260901124508 76 202 0.0 2.6 0.00 0.00 0.00 85 1012.9
20260901123504 76 204 0.0 1.7 0.00 0.00 0.00 86 1012.7
20260901123007 76 190 0.0 2.6 0.00 0.00 0.00 86 1012.7
20260901122504 76 196 0.0 2.6 0.00 0.00 0.00 86 1012.6
20260901122004 75 210 0.0 1.7 0.00 0.00 0.00 86 1012.4
20260901121507 75 202 0.0 0.9 0.00 0.00 0.00 86 1012.4
20260901121003 75 213 0.0 0.9 0.00 0.00 0.00 87 1012.3
20260901120008 75 0 0.0 0.0 0.00 0.00 0.00 89 1012.2
20260901115503 74 0 0.0 0.0 0.00 0.00 0.00 89 1012.2
20260901115003 74 0 0.0 0.0 0.00 0.00 0.00 89 1012.3
20260901114508 74 0 0.0 0.0 0.00 0.00 0.00 89 1012.3
20260901114003 74 0 0.0 0.0 0.00 0.00 0.00 90 1012.2
20260901113503 74 0 0.0 0.0 0.00 0.00 0.00 90 1012.3
20260901112503 74 0 0.0 0.0 0.00 0.00 0.00 90 1012.4
20260901111508 75 0 0.0 0.0 0.00 0.00 0.00 90 1012.3
20260901111003 75 0 0.0 0.0 0.00 0.00 0.00 90 1012.3
20260901110503 75 0 0.0 0.0 0.00 0.00 0.00 90 1012.4
20260901110008 75 0 0.0 0.0 0.00 0.00 0.00 90 1012.5
20260901105503 76 0 0.0 0.0 0.00 0.00 0.00 90 1012.5
20260901105003 76 0 0.0 0.0 0.00 0.00 0.00 90 1012.4
20260901104508 76 0 0.0 0.0 0.00 0.00 0.00 90 1012.5
20260901104003 76 0 0.0 0.0 0.00 0.00 0.00 90 1012.5
20260901103503 76 0 0.0 0.0 0.00 0.00 0.00 90 1012.5
20260901103008 76 221 0.0 0.9 0.00 0.00 0.00 90 1012.4
20260901102503 76 220 0.0 0.9 0.00 0.00 0.00 90 1012.6
20260901102003 76 215 0.0 0.9 0.00 0.00 0.00 90 1012.6
20260901101508 76 0 0.0 0.0 0.00 0.00 0.00 91 1012.7
20260901100503 76 0 0.0 0.0 0.00 0.00 0.00 91 1012.7
20260901100008 76 0 0.0 0.0 0.00 0.00 0.00 91 1012.7
20260901095503 76 0 0.0 0.0 0.00 0.00 0.00 92 1012.7
20260901095004 76 0 0.0 0.0 0.00 0.00 0.00 92 1012.8
20260901094003 76 0 0.0 0.0 0.00 0.00 0.00 93 1012.8
20260901093503 76 213 0.0 0.9 0.00 0.00 0.00 93 1012.8
20260901093008 76 213 0.0 0.9 0.00 0.00 0.00 94 1012.8
20260901092503 75 0 0.0 0.0 0.00 0.00 0.00 94 1012.9
20260901092003 75 0 0.0 0.0 0.00 0.00 0.00 95 1012.9
20260901091508 75 0 0.0 0.0 0.00 0.00 0.00 96 1012.8
20260901091004 74 0 0.0 0.0 0.00 0.00 0.00 96 1012.8
20260901090504 74 0 0.0 0.0 0.00 0.00 0.00 96 1012.8
20260901090008 74 0 0.0 0.0 0.00 0.00 0.00 96 1012.8
20260901084003 74 0 0.0 0.0 0.00 0.00 0.00 95 1012.7
20260901083503 74 0 0.0 0.0 0.00 0.00 0.00 95 1012.6
20260901083008 74 0 0.0 0.0 0.00 0.00 0.00 95 1012.7
20260901082003 74 0 0.0 0.0 0.00 0.00 0.00 95 1012.6
20260901081508 74 0 0.0 0.0 0.00 0.00 0.00 95 1012.6
20260901080008 75 0 0.0 0.0 0.00 0.00 0.00 94 1012.7
20260901075503 75 0 0.0 0.0 0.00 0.00 0.00 94 1012.8
20260901075004 75 0 0.0 0.0 0.00 0.00 0.00 94 1012.8
20260901074508 75 0 0.0 0.0 0.00 0.00 0.00 94 1012.8
20260901073504 75 0 0.0 0.0 0.00 0.00 0.00 94 1012.8
20260901072503 75 0 0.0 0.0 0.00 0.00 0.00 94 1012.8
20260901071003 75 0 0.0 0.0 0.00 0.00 0.00 94 1012.9
20260901070503 75 0 0.0 0.0 0.00 0.00 0.00 94 1012.9
20260901070008 76 0 0.0 0.0 0.00 0.00 0.00 94 1012.9
20260901065503 75 0 0.0 0.0 0.00 0.00 0.00 94 1013.0
20260901065004 75 0 0.0 0.0 0.00 0.00 0.00 93 1012.9
20260901064508 76 0 0.0 0.0 0.00 0.00 0.00 93 1012.9
20260901064003 76 0 0.0 0.0 0.00 0.00 0.00 93 1013.0
20260901063504 76 0 0.0 0.0 0.00 0.00 0.00 93 1013.0
20260901062503 76 0 0.0 0.0 0.00 0.00 0.00 93 1013.0
20260901061508 76 0 0.0 0.0 0.00 0.00 0.00 93 1013.0
20260901061004 76 0 0.0 0.0 0.00 0.00 0.00 93 1013.1
20260901060503 76 0 0.0 0.0 0.00 0.00 0.00 93 1013.1
20260901060009 76 0 0.0 0.0 0.00 0.00 0.00 93 1013.1
20260901055503 76 0 0.0 0.0 0.00 0.00 0.00 93 1013.1
20260901054003 76 0 0.0 0.0 0.00 0.00 0.00 93 1013.2
20260901053504 76 0 0.0 0.0 0.00 0.00 0.00 92 1013.3
20260901053009 76 0 0.0 0.0 0.00 0.00 0.00 92 1013.3
20260901052503 76 0 0.0 0.0 0.00 0.00 0.00 92 1013.3
20260901052003 77 0 0.0 0.0 0.00 0.00 0.00 92 1013.2
20260901051508 77 0 0.0 0.0 0.00 0.00 0.00 92 1013.2
20260901051004 77 0 0.0 0.0 0.00 0.00 0.00 92 1013.1
20260901050503 77 0 0.0 0.0 0.00 0.00 0.00 91 1013.0
20260901050010 77 0 0.0 0.0 0.00 0.00 0.00 91 1013.1
20260901045003 77 0 0.0 0.0 0.00 0.00 0.00 91 1013.2
20260901044509 77 0 0.0 0.0 0.00 0.00 0.00 91 1013.2
20260901044004 77 0 0.0 0.0 0.00 0.00 0.00 90 1013.2
20260901043503 77 0 0.0 0.0 0.00 0.00 0.00 90 1013.2
20260901043008 77 0 0.0 0.0 0.00 0.00 0.00 90 1013.2
20260901042003 78 0 0.0 0.0 0.00 0.00 0.00 90 1013.2
20260901041003 78 0 0.0 0.0 0.00 0.00 0.00 89 1013.2
20260901040503 78 0 0.0 0.0 0.00 0.00 0.00 89 1013.3
20260901040008 78 0 0.0 0.0 0.00 0.00 0.00 89 1013.2
20260901035504 78 0 0.0 0.0 0.00 0.00 0.00 89 1013.2
20260901035003 78 0 0.0 0.0 0.00 0.00 0.00 88 1013.2
20260901034508 78 0 0.0 0.0 0.00 0.00 0.00 88 1013.1
20260901034003 78 0 0.0 0.0 0.00 0.00 0.00 88 1013.0
20260901032503 78 0 0.0 0.0 0.00 0.00 0.00 87 1012.9
20260901032003 78 0 0.0 0.0 0.00 0.00 0.00 86 1012.9
20260901031004 78 0 0.0 0.0 0.00 0.00 0.00 87 1012.9
20260901030504 79 0 0.0 0.0 0.00 0.00 0.00 86 1012.9
20260901030008 79 0 0.0 0.0 0.00 0.00 0.00 86 1012.9
20260901025503 79 0 0.0 0.0 0.00 0.00 0.00 86 1012.8
20260901025004 79 0 0.0 0.0 0.00 0.00 0.00 86 1012.7